Weather Roundup
Issued by NWS

Home | Current Version | Previous Version | Graphics & Text | Print | Product List | Glossary Off
Versions: 1 2 3 4 5 6 7 8 9 10 11 12 13 14 15 16 17 18 19 20 21 22 23 24 25 26 27 28 29 30 31 32 33 34 35 36 37 38 39 40 41 42 43 44 45 46 47 48 49 50

012
NZUS93 KARX 220459
HRRWXR

CURRENT HOURLY OBSERVATIONS ACROSS
MUCH OF THE UPPER MISSISSIPPI VALLEY
NATIONAL WEATHER SERVICE LA CROSSE WI
1200 AM CDT SUN OCT 22 2017


...SOUTHEAST MINNESOTA...


CITY           SKY/WX    TMP DP  RH WIND       PRES   REMARKS
ROCHESTER      CLOUDY    53  49  86 W13G22    29.87R
ROCHESTER/MAYO CLOUDY    54  47  78 W18G30    29.86S
WINONA         RAIN      55  54  94 NW13      29.85R
AUSTIN         CLOUDY    52  45  76 W10G16    29.89R
ALBERT LEA     NOT AVBL
DODGE CENTER   CLOUDY    52  45  76 W13G18    29.87R
PRESTON        RAIN      53  50  89 NW12      29.87R
OWATONNA       CLOUDY    52  45  76 W9        29.89R
FARIBAULT      CLOUDY    52  45  76 W7        29.88R
$$

...ELSEWHERE IN MINNESOTA...


CITY           SKY/WX    TMP DP  RH WIND       PRES   REMARKS
MINNEAPOLIS    CLOUDY    53  46  77 W8        29.85R
INTNL FALLS    PTCLDY    50  46  86 SW7       29.62R
DULUTH         CLOUDY    53  51  93 W16       29.71R
RED WING       CLOUDY    55  48  76 W10       29.83R
REDWOOD FALLS  CLEAR     47  40  76 SW8       29.88R
MANKATO        CLOUDY    50  43  77 W9        29.89
WORTHINGTON    PTCLDY    43  39  86 SW8       29.94R
FAIRMONT       CLOUDY    49  42  77 W8        29.92R
$$

...SOUTHWEST WISCONSIN...


CITY           SKY/WX    TMP DP  RH WIND       PRES   REMARKS
LA CROSSE      RAIN      62  61  96 S14       29.81S
PRAIRIE DU CHI HVY RAIN  61  58  90 S6        29.89R
BOSCOBEL       TSTM      66  58  75 SW17G32   29.88R
LONE ROCK      NOT AVBL
PLATTEVILLE    PTCLDY    69  61  76 S18       29.87F
FORT MC COY    RAIN      61  60  97 SW3       29.84R
MAUSTON-NEW LI CLOUDY    70  61  73 S15G22    29.83S
VIROQUA        CLOUDY    60  60 100 SW10G18   29.85F VSB 1/2
WIS DELLS      MOCLDY    68  57  68 S14G26    29.86F
$$

...ELSEWHERE IN WISCONSIN...


CITY           SKY/WX    TMP DP  RH WIND       PRES   REMARKS
MILWAUKEE      PTCLDY    68  58  70 S10       29.96F
MADISON        MOCLDY    69  59  70 S16       29.89F
GREEN BAY      CLEAR     66  59  78 S14G23    29.90S
EAU CLAIRE     LGT RAIN  61  59  94 SW12G20   29.80R FOG
BLACK RVR FLS  TSTM      62  62 100 S3        29.82S
MEDFORD        TSTM      60  58  92 SW6       29.83R
WAUSAU         CLOUDY    67  58  72 S17G25    29.82F
WIS RAPIDS     CLOUDY    70  60  70 S13G24    29.83F
MARSHFIELD     CLOUDY    67  58  72 SW25G35   29.84R
RICE LAKE      CLOUDY    55  51  86 W10       29.81R
$$

...NORTHEAST IOWA...


CITY           SKY/WX    TMP DP  RH WIND       PRES   REMARKS
WATERLOO       LGT RAIN  54  52  93 W9        29.89R
DUBUQUE        CLOUDY    67  60  78 S14       29.86F
DECORAH        RAIN      61  61 100 W12G20    29.83S
MASON CITY     CLOUDY    51  45  79 NW13      29.93R
CHARLES CITY   DRIZZLE   54  54 100 NW9G16    29.88F
OELWEIN        LGT RAIN  59  59 100 S12       29.88R
$$

...ELSEWHERE IN IOWA...


CITY           SKY/WX    TMP DP  RH WIND       PRES   REMARKS
DES MOINES     LGT RAIN  53  49  86 NW13      29.93F
IOWA CITY      HVY RAIN  63  60  90 SW9       29.90R FOG
FORT DODGE     CLOUDY    51  43  74 NW3       29.95R
MARSHALLTOWN   RAIN      53  51  93 NW17      29.88S
CEDAR RAPIDS   LGT RAIN  62  60  93 SW6       29.87R
$$

...NORTHERN ILLINOIS...


CITY           SKY/WX    TMP DP  RH WIND       PRES   REMARKS
CHICAGO-OHARE  PTCLDY    67  55  65 S20       30.00S
CHICAGO-MIDWAY PTCLDY    68  55  63 S15       30.01S
MOLINE         CLOUDY    71  57  61 S15G23    29.87F
ROCKFORD       CLOUDY    68  57  68 S16       29.95F
PEORIA         CLOUDY    70  57  63 S17G29    29.95F
$$

NOTE: "FAIR" INDICATES FEW OR NO CLOUDS BELOW 12,000 FEET WITH NO
SIGNIFICANT WEATHER AND/OR OBSTRUCTIONS TO VISIBILITY. WIND
SPEEDS ARE IN MILES-PER-HOUR.




USA.gov is the U.S. government's official web portal to all federal, state and local government web resources and services.